[Iaude] MPEC W114: 2023 WY2 [a=4.72,e=0.78,i=25.3,H=18.5]
    mpec at marsden.cfa.harvard.edu 
    mpec at marsden.cfa.harvard.edu
       
    Fri Nov 24 16:48:38 EST 2023
    
    
  
M.P.E.C. 2023-W114                            Issued 2023 November 24, 21:47 UT
     The Minor Planet Electronic Circulars contain information on unusual
         minor planets, routine data on comets and natural satellites,
         and occasional editorial announcements.  They are published
    on behalf of Division F of the International Astronomical Union by the
          Minor Planet Center, Smithsonian Astrophysical Observatory,
                          Cambridge, MA 02138, U.S.A.
			  
             Prepared using the Tamkin Foundation Computer Network
                              MPC at CFA.HARVARD.EDU
            URL https://www.minorplanetcenter.net/    ISSN 1523-6714
                                    2023 WY2                                    
Observations:
     K23W02Y* S2023 11 19.15953 13 41 16.99 +68 47 48.9          16   RLEW114C51
     K23W02Y  s2023 11 19.15953 1 - 2617.1464 -  519.9477 + 6246.1169   EW114C51
     K23W02Y  S2023 11 19.28878 13 41 29.04 +68 40 16.6                LEW114C51
     K23W02Y  s2023 11 19.28878 1 - 2613.8535 -  526.1644 + 6246.9570   EW114C51
     K23W02Y  S2023 11 19.41803 13 41 40.93 +68 32 44.6                LEW114C51
     K23W02Y  s2023 11 19.41803 1 - 2610.7280 -  532.3406 + 6247.7201   EW114C51
     K23W02Y  S2023 11 19.67652 13 42 04.16 +68 17 41.3                LEW114C51
     K23W02Y  s2023 11 19.67652 1 - 2605.4816 -  544.5083 + 6248.8236   EW114C51
     K23W02Y  S2023 11 19.74121 13 42 09.92 +68 13 55.7                LEW114C51
     K23W02Y  s2023 11 19.74121 1 - 2642.8538 -  541.9662 + 6233.3514   EW114C51
     K23W02Y  S2023 11 19.80577 13 42 15.53 +68 10 10.0                LEW114C51
     K23W02Y  s2023 11 19.80577 1 - 2602.9542 -  550.5614 + 6249.3259   EW114C51
     K23W02Y  S2023 11 19.87046 13 42 21.16 +68 06 24.2                LEW114C51
     K23W02Y  s2023 11 19.87046 1 - 2640.4694 -  548.0832 + 6233.8087   EW114C51
     K23W02Y  S2023 11 19.93502 13 42 26.72 +68 02 39.0                LEW114C51
     K23W02Y  s2023 11 19.93502 1 - 2600.6246 -  556.5771 + 6249.7452   EW114C51
     K23W02Y  S2023 11 19.93515 13 42 26.77 +68 02 38.6                LEW114C51
     K23W02Y  s2023 11 19.93515 1 - 2677.9492 -  545.6617 + 6218.0348   EW114C51
     K23W02Y  S2023 11 19.99971 13 42 32.27 +67 58 53.4                LEW114C51
     K23W02Y  s2023 11 19.99971 1 - 2638.2582 -  554.1661 + 6234.1865   EW114C51
     K23W02Y  S2023 11 20.06439 13 42 37.80 +67 55 07.9                LEW114C51
     K23W02Y  s2023 11 20.06439 1 - 2675.8833 -  551.8084 + 6218.3628   EW114C51
     K23W02Y  S2023 11 20.25820 13 42 54.04 +67 43 52.3                LEW114C51
     K23W02Y  s2023 11 20.25820 1 - 2634.4081 -  566.2275 + 6234.6947   EW114C51
     K23W02Y  S2023 11 20.25833 13 42 54.03 +67 43 52.1                LEW114C51
     K23W02Y  s2023 11 20.25833 1 - 2711.5989 -  555.7039 + 6202.5281   EW114C51
     K23W02Y  S2023 11 20.32289 13 42 59.35 +67 40 07.2                LEW114C51
     K23W02Y  s2023 11 20.32289 1 - 2672.2298 -  564.0133 + 6218.8029   EW114C51
     K23W02Y  S2023 11 20.38758 13 43 04.66 +67 36 22.0                LEW114C51
     K23W02Y  s2023 11 20.38758 1 - 2710.0398 -  561.8514 + 6202.6374   EW114C51
     K23W02Y  S2023 11 20.45163 13 43 09.75 +67 32 38.2                LEW114C51
     K23W02Y  s2023 11 20.45163 1 - 2358.7531 -  610.3897 + 6339.7897   EW114C51
     K23W02Y  S2023 11 20.58139 13 43 20.26 +67 25 07.6                LEW114C51
     K23W02Y  s2023 11 20.58139 1 - 2669.4255 -  576.0781 + 6218.8647   EW114C51
     K23W02Y  S2023 11 20.64607 13 43 25.40 +67 21 22.5                LEW114C51
     K23W02Y  s2023 11 20.64607 1 - 2707.4322 -  574.0607 + 6202.6221   EW114C51
     K23W02Y  S2023 11 20.77532 13 43 35.57 +67 13 53.2                LEW114C51
     K23W02Y  s2023 11 20.77532 1 - 2706.4709 -  580.1151 + 6202.4626   EW114C51
     K23W02Y  S2023 11 20.90457 13 43 45.57 +67 06 24.1                LEW114C51
     K23W02Y  s2023 11 20.90457 1 - 2705.6785 -  586.1441 + 6202.2241   EW114C51
     K23W02Y  S2023 11 21.03382 13 43 55.41 +66 58 55.4                LEW114C51
     K23W02Y  s2023 11 21.03382 1 - 2705.1153 -  592.1431 + 6201.8817   EW114C51
     K23W02Y KC2023 11 23.44930 13 46 37.35 +64 39 50.6          19.7 GVEW114V21
     K23W02Y KC2023 11 23.45641 13 46 37.76 +64 39 26.4          19.5 GVEW114V21
     K23W02Y KC2023 11 23.46352 13 46 38.16 +64 39 02.4          19.4 GVEW114V21
     K23W02Y KC2023 11 23.47062 13 46 38.57 +64 38 39.2          19.3 GVEW114V21
     K23W02Y KC2023 11 23.47773 13 46 39.00 +64 38 15.4          19.6 GVEW114V21
     K23W02Y KC2023 11 23.48484 13 46 39.34 +64 37 51.2          19.6 GVEW114V21
     K23W02Y KC2023 11 23.49195 13 46 39.72 +64 37 27.2          19.6 GVEW114V21
     K23W02Y KC2023 11 23.49905 13 46 40.08 +64 37 03.2          19.6 GVEW114V21
     K23W02Y  C2023 11 23.51170 13 46 40.84 +64 36 22.6          20.1 GVEW114V38
     K23W02Y  C2023 11 23.51382 13 46 40.86 +64 36 15.4          20.0 GVEW114V38
     K23W02Y  C2023 11 23.51594 13 46 40.93 +64 36 08.4          19.6 GVEW114V38
     K23W02Y KC2023 11 24.48263 13 47 33.37 +63 40 52.9          19.6 GVEW114V21
     K23W02Y KC2023 11 24.49121 13 47 33.84 +63 40 23.4          19.2 GVEW114V21
     K23W02Y KC2023 11 24.50010 13 47 34.36 +63 39 53.1          19.6 GVEW114V21
     K23W02Y  C2023 11 24.50127 13 47 34.37 +63 39 50.4          19.4 GVEW114V38
     K23W02Y  C2023 11 24.50339 13 47 34.39 +63 39 43.8          19.3 GVEW114V38
     K23W02Y  C2023 11 24.50551 13 47 34.54 +63 39 36.8          19.8 GVEW114V38
     K23W02Y KC2023 11 24.50898 13 47 34.75 +63 39 23.5          19.4 GVEW114V21
     K23W02Y KC2023 11 24.51786 13 47 35.18 +63 38 54.0          19.5 GVEW114V21
Observer details:
C51 WISE.  Observer Near-Earth Object Wide-field Infrared Survey Explorer.
    Measurers A. K. Mainzer, J. M. Bauer, T. Grav, J. R. Masiero, R. M. Cutri,
    J. W. Dailey, Y. G. Kwon, J. Pittichova, E. L. Wright.
V21 Cewanee Observatory at DSNM.  Observer D. T. Durig.  0.40 m f/8 Ritchey-
    Chretien + 4656x3520 CCD.
V38 McDonald Observatory-LCO ELP Aqawan A #1.  Observer A. Hale.  0.35-m f/3
    Cassegrain + CCD.
Orbital elements:
2023 WY2                                                 Earth MOID = 0.2412 AU
Epoch 2023 Sept. 13.0 TT = JDT 2460200.5                Bell                    
M 351.02002              (2000.0)            P               Q                  
n   0.09606695     Peri.  120.48451     -0.18257041     -0.97036420             
a   4.7215730      Node   338.25566     +0.68991736     -0.01172383             
e   0.7768342      Incl.   25.29767     +0.70048703     -0.24136252             
P  10.3            H   18.57          G   0.15           U   9                  
Residuals in seconds of arc
231119 C51  0.1+  0.2+    231120 C51  0.0   0.1-    231123 V21  0.4-  0.6-
231119 C51  0.0   0.2+    231120 C51  0.1-  0.1-    231123 V38  0.5+  0.0
231119 C51  0.0   0.2+    231120 C51  0.1-  0.0     231123 V38  0.1-  0.0
231119 C51  0.1-  0.1+    231120 C51  0.2-  0.2-    231123 V38  0.3-  0.1+
231119 C51  0.1+  0.3+    231120 C51  0.0   0.2-    231124 V21  0.7-  1.1+
231119 C51  0.1-  0.0     231120 C51  0.0   0.3-    231124 V21  0.4-  0.3+
231119 C51  0.1-  0.1-    231121 C51  0.2-  0.1-    231124 V21  0.3+  0.3-
231119 C51  0.1-  0.1+    231123 V21  0.2-  0.0     231124 V38  0.2+  0.4-
231119 C51  0.0   0.1-    231123 V21  0.2-  0.4-    231124 V38  0.3-  0.1+
231119 C51  0.1-  0.0     231123 V21  0.2-  0.6-    231124 V38  0.1+  0.2+
231120 C51  0.1+  0.1-    231123 V21  0.1-  0.0     231124 V21  0.1+  0.2-
231120 C51  0.2+  0.2-    231123 V21  0.1+  0.1+    231124 V21  0.3+  0.1-
231120 C51  0.0   0.1-    231123 V21  0.2-  0.3-
231120 C51  0.0   0.1-    231123 V21  0.3-  0.4-
Ephemeris:
2023 WY2                 a,e,i = 4.72, 0.78, 25                  q = 1.0537
Date    TT    R. A. (2000) Decl.     Delta      r    Elong.  Phase     V
2023 10 25    04 26 18.4 +83 26 19   0.5791  1.2887   107.0    47.6    19.7
...
2023 11 09    13 07 22.5 +78 50 43   0.5376  1.1803    96.6    56.5    19.6
...
2023 11 17    13 37 24.5 +70 54 25   0.5256  1.1333    91.7    60.7    19.6
...
2023 11 23    13 46 08.5 +65 05 42   0.5190  1.1043    88.6    63.4    19.6
2023 11 24    13 47 05.9 +64 08 28   0.5180  1.1000    88.1    63.8    19.6
2023 11 25    13 47 57.1 +63 11 29   0.5171  1.0959    87.7    64.2    19.6
...
2023 12 01    13 51 26.8 +57 34 11   0.5119  1.0751    85.5    66.1    19.6
...
2023 12 09    13 53 15.5 +50 14 42   0.5052  1.0580    83.9    67.8    19.6
...
2023 12 24    13 51 29.5 +36 48 12   0.4916  1.0612    85.1    67.4    19.5
M. P. C. Staff               (C) Copyright 2023 MPC           M.P.E.C. 2023-W114
    
    
More information about the Iaude
mailing list